Wind_Speed
38 38 37 36 37 37 39 39 39 36 35 32 33 33 33 33 33 33 33 33 33 33 33 33 34 34 34 34 35 36 36 37 38 40 41 43 44 45 46 47 49 50 51 52
37 37 37 37 36 37 37 37 36 36 33 31 33 34 33 33 33 33 33 33 33 33 33 33 34 34 35 35 36 36 37 38 39 41 42 44 45 46 48 49 50 51 52 53
37 36 38 38 34 34 35 34 35 35 33 33 34 34 34 33 33 33 33 32 32 32 33 33 34 34 35 35 36 37 38 39 40 42 43 45 46 47 49 50 51 51 53 54
38 38 40 35 32 32 33 33 34 34 34 34 34 34 33 33 33 32 32 31 31 32 32 33 34 34 35 36 37 38 39 40 42 43 45 46 47 49 50 50 52 53 55 56
38 38 38 34 31 31 32 32 32 33 33 34 34 33 32 32 32 31 31 31 31 32 32 33 33 34 35 36 36 38 39 41 43 44 46 47 48 49 50 52 53 55 56 58
38 37 36 30 29 30 32 31 30 32 32 32 32 32 30 31 31 30 30 31 31 31 32 33 33 34 35 35 37 38 40 42 43 45 46 47 48 49 51 52 54 56 58 60
37 36 34 30 29 30 31 29 29 30 30 30 30 31 30 30 30 30 30 30 31 31 32 33 34 34 36 37 38 40 42 43 44 45 46 47 48 50 52 54 56 58 60 63
35 36 31 28 29 29 29 30 30 29 29 29 29 30 30 30 30 30 30 30 31 32 33 34 35 36 37 39 40 41 42 43 44 45 46 47 49 51 53 56 58 60 63 64
34 32 29 29 29 29 30 30 29 29 29 29 29 29 29 29 29 29 30 30 31 33 34 35 36 37 38 39 40 41 42 43 44 45 47 49 51 53 56 59 61 63 64 66
32 30 30 30 30 30 30 29 29 28 29 29 29 29 29 29 29 30 31 32 33 34 35 36 37 37 38 39 40 41 42 43 45 47 49 51 53 56 58 61 62 64 66 68
31 29 30 31 31 31 30 29 29 29 29 29 29 30 30 30 30 31 32 33 34 34 35 36 37 37 38 39 40 41 43 45 47 49 51 53 55 58 60 62 64 67 69 71
30 29 31 31 31 31 31 30 30 29 29 30 30 30 30 31 31 32 33 33 34 34 35 36 36 38 39 40 41 43 45 47 48 51 53 55 57 59 61 64 66 69 71 72
31 31 31 31 31 30 30 30 30 30 30 30 30 30 31 31 32 33 33 34 34 35 36 36 37 39 40 41 43 45 47 48 50 52 55 57 59 61 63 66 68 70 72 73
32 32 32 31 31 30 30 31 31 30 30 31 31 31 32 33 33 33 34 35 35 36 37 38 39 40 42 43 45 47 48 50 52 54 57 59 61 64 66 68 70 71 73 74
32 33 33 32 32 32 31 31 31 31 31 31 31 32 32 33 33 34 35 36 37 37 38 39 40 42 43 45 47 48 50 52 54 56 59 61 64 66 68 70 72 73 74 74
32 33 33 33 33 32 32 31 31 31 31 31 31 32 33 34 34 35 36 37 38 38 39 41 42 44 45 46 48 50 51 53 56 59 61 63 66 68 70 72 74 74 74 72
32 32 32 32 32 32 31 31 31 31 32 32 33 33 34 35 35 36 37 38 39 40 41 42 44 45 47 48 49 51 53 56 59 61 64 66 68 70 73 74 74 73 71 69
32 32 32 32 32 32 32 32 31 32 32 33 34 34 35 36 37 37 38 39 40 41 43 44 45 46 48 49 51 53 56 59 61 63 66 68 70 73 74 74 72 70 68 66
32 31 31 31 31 31 31 31 31 32 33 33 34 35 35 36 37 38 39 40 42 43 44 45 46 48 49 51 54 56 59 61 63 66 68 70 73 74 73 71 69 67 65 62
30 30 30 30 30 30 31 31 32 32 33 33 34 35 35 36 37 39 40 41 43 44 45 46 48 50 51 54 56 59 61 64 66 68 70 72 72 71 70 68 66 64 62 59
29 29 29 29 30 30 31 31 32 33 34 34 35 35 36 37 38 40 41 43 44 45 47 48 50 52 53 56 59 61 64 66 68 70 71 71 70 69 67 65 63 61 58 55
29 29 29 29 30 30 31 32 33 33 34 34 35 36 37 38 40 41 42 44 45 47 48 50 52 54 56 59 61 64 65 67 69 69 69 69 68 65 63 62 59 56 54 52
29 29 29 30 30 31 31 32 32 33 34 35 36 37 38 39 41 43 44 46 47 49 50 52 54 57 59 61 63 64 66 67 68 68 68 67 64 62 60 58 55 52 51 49
29 30 30 30 31 31 32 33 33 34 35 36 37 38 39 41 43 44 46 47 48 50 52 54 57 58 60 62 63 65 66 67 67 67 65 62 60 58 57 54 51 49 47 46
29 30 30 30 31 32 32 33 34 35 36 37 38 40 41 42 44 45 47 49 51 53 55 56 58 59 61 63 65 66 66 66 65 63 60 58 57 55 53 51 49 47 45 44
30 30 31 31 32 32 33 34 35 36 37 38 40 41 43 44 46 48 49 51 53 54 55 57 58 60 62 64 65 64 64 63 61 59 57 56 54 52 50 47 45 44 43 42
30 31 32 32 33 33 34 35 36 37 38 39 41 43 44 46 48 49 51 53 54 55 56 58 59 61 62 63 63 63 62 60 58 56 55 53 51 48 46 44 43 42 41 41
Wind_Direction
240 243 245 246 247 249 253 258 262 265 268 270 271 272 275 277 278 278 277 277 276 275 274 274 274 274 274 274 275 276 277 279 280 282 284 285 287 289 291 292 293 295 296 298
240 244 247 248 248 250 253 258 262 265 267 269 271 272 274 275 277 278 278 277 276 275 274 273 273 274 275 275 276 277 278 280 282 283 285 287 289 290 292 293 295 296 297 298
242 244 247 248 250 253 257 259 262 265 269 270 272 273 274 275 277 279 278 277 276 275 274 274 274 275 275 276 278 279 279 281 283 286 287 289 290 292 294 295 296 297 298 299
242 244 247 251 252 255 258 259 263 266 269 271 272 272 274 276 277 278 278 277 276 275 274 274 275 275 276 277 279 279 281 284 286 287 289 291 292 294 295 296 297 298 299 300
241 246 250 251 254 256 258 259 263 266 269 269 271 273 275 276 277 277 277 277 277 276 276 276 276 277 278 279 280 282 284 286 288 289 291 292 294 295 296 297 298 299 300 301
242 247 252 252 254 256 259 260 263 266 269 270 272 273 275 276 277 278 277 277 277 278 278 278 279 279 280 281 283 285 287 289 290 291 293 294 295 296 297 298 299 300 301 302
244 248 251 252 253 255 259 263 263 266 269 270 271 274 276 276 277 278 277 277 278 278 279 280 281 282 282 283 285 287 289 290 291 293 294 295 296 298 299 300 300 301 302 302
244 247 250 253 255 258 260 262 265 267 269 270 272 274 275 276 277 278 278 278 278 279 280 281 282 283 284 286 287 289 290 291 293 294 296 297 298 299 300 301 301 302 303 303
246 250 251 253 257 258 259 262 267 269 270 271 273 274 275 276 277 278 279 280 280 281 281 282 284 285 286 288 289 290 292 293 295 296 297 298 299 300 301 302 303 303 304 304
243 245 248 251 255 258 261 264 268 271 272 272 274 274 275 276 277 279 281 282 282 283 283 284 285 286 287 289 290 292 294 295 297 298 299 300 301 302 302 303 304 305 305 306
242 244 248 252 255 258 261 264 267 270 271 273 274 275 275 276 277 279 282 284 284 284 285 285 286 287 289 290 292 294 296 297 298 299 300 301 302 303 304 305 305 306 307 307
242 245 249 252 255 257 261 264 266 268 271 273 275 276 276 277 279 281 283 285 285 286 287 287 288 289 291 293 294 296 297 299 300 301 302 303 304 305 306 306 307 307 307 308
243 245 249 251 254 257 260 262 265 268 271 274 275 276 277 279 281 283 284 285 286 287 288 289 290 291 293 295 296 298 299 300 301 302 303 304 305 306 307 307 308 308 308 308
244 246 249 251 253 256 259 262 265 268 271 273 275 277 279 281 282 284 285 286 287 288 289 290 291 293 295 297 298 299 300 301 302 303 305 306 307 308 308 309 309 309 309 309
246 248 250 252 254 257 260 263 265 268 271 273 276 278 280 282 283 285 286 288 289 290 291 292 293 295 297 298 299 300 301 302 304 305 307 308 308 309 310 310 310 310 310 310
247 250 251 253 256 259 262 265 267 269 272 274 276 278 280 282 284 286 287 289 290 291 292 294 296 297 299 299 300 301 302 304 306 307 308 309 310 310 311 311 311 311 311 310
248 251 253 254 256 258 262 265 267 269 272 274 276 279 280 282 284 286 288 290 291 292 294 295 297 298 299 300 301 302 304 306 307 308 309 310 311 311 312 312 312 312 312 311
249 252 254 255 257 258 261 264 267 269 272 274 277 280 282 284 285 287 289 291 292 294 295 297 298 299 300 302 303 304 306 307 308 309 310 310 311 312 312 313 313 312 312 312
250 252 254 255 257 259 261 264 267 270 272 274 277 280 282 285 287 289 291 292 294 295 297 298 299 300 301 302 304 305 306 308 308 309 310 311 312 312 313 313 313 313 313 312
249 251 253 255 258 260 262 265 268 271 273 275 278 281 283 286 288 290 291 293 295 296 297 299 300 301 303 304 305 306 308 308 309 310 311 312 312 313 313 313 313 313 313 313
251 252 254 257 259 260 263 265 268 271 274 276 279 281 284 286 288 290 292 294 296 297 299 300 301 303 303 304 306 307 308 309 310 311 312 312 313 313 313 313 313 313 313 313
252 254 256 257 259 262 264 267 270 272 275 277 279 282 284 287 289 291 294 296 297 299 300 301 302 303 304 305 307 308 309 310 311 312 312 313 313 313 313 313 313 313 313 314
253 255 258 259 260 263 266 268 271 273 276 278 281 283 286 288 291 293 295 297 298 300 301 302 303 304 305 306 308 309 310 311 312 312 313 313 313 314 314 314 314 314 314 314
254 256 258 260 261 264 266 269 271 274 277 279 282 285 287 290 293 295 296 298 299 300 302 303 304 305 306 308 309 310 311 312 312 313 313 313 313 314 315 315 314 314 314 314
255 257 259 261 263 265 268 271 274 276 278 280 283 286 289 291 294 296 297 298 300 301 302 304 305 306 308 309 310 311 311 312 312 313 313 313 314 314 315 315 315 314 314 314
257 259 261 264 266 269 271 274 276 278 280 283 285 288 290 292 294 296 298 299 301 302 304 305 306 307 309 310 311 312 312 312 313 313 313 314 314 314 315 315 315 314 314 314
259 261 264 266 269 271 274 276 278 280 283 285 287 289 292 294 295 297 299 301 302 303 304 305 307 309 310 311 312 312 312 312 312 313 313 314 314 315 315 315 315 315 314 314
Height
5698 5701 5704 5707 5710 5711 5712 5714 5715 5718 5718 5720 5717 5716 5716 5715 5714 5714 5713 5713 5712 5711 5710 5709 5708 5707 5706 5705 5703 5701 5699 5697 5694 5692 5689 5685 5682 5678 5674 5670 5666 5661 5656 5650
5690 5692 5695 5697 5700 5702 5704 5706 5707 5708 5710 5711 5709 5708 5708 5707 5706 5705 5704 5703 5703 5701 5701 5700 5699 5698 5697 5695 5693 5691 5689 5687 5684 5681 5678 5675 5671 5667 5663 5658 5653 5648 5643 5637
5682 5684 5685 5688 5694 5695 5697 5698 5699 5699 5703 5701 5700 5699 5699 5698 5697 5697 5696 5694 5693 5692 5691 5690 5689 5688 5687 5685 5683 5681 5679 5676 5674 5670 5667 5663 5659 5655 5650 5645 5640 5635 5630 5624
5673 5676 5677 5685 5687 5688 5689 5690 5691 5692 5692 5692 5691 5690 5690 5690 5689 5688 5687 5686 5685 5683 5682 5681 5680 5678 5677 5675 5673 5671 5669 5666 5663 5659 5656 5652 5647 5643 5638 5633 5628 5622 5616 5610
5664 5666 5670 5675 5679 5680 5680 5682 5683 5683 5683 5683 5682 5682 5682 5681 5680 5679 5678 5677 5676 5674 5673 5672 5671 5669 5667 5665 5663 5661 5658 5655 5652 5648 5644 5640 5635 5630 5625 5620 5614 5609 5602 5596
5656 5659 5662 5669 5671 5670 5672 5673 5675 5674 5674 5674 5674 5674 5674 5672 5671 5670 5669 5668 5667 5666 5664 5663 5661 5660 5658 5656 5653 5651 5648 5644 5640 5636 5632 5628 5623 5618 5612 5607 5601 5595 5588 5581
5648 5650 5654 5660 5661 5662 5665 5667 5666 5666 5666 5666 5665 5666 5665 5664 5663 5661 5660 5659 5658 5657 5655 5654 5652 5650 5648 5646 5643 5640 5637 5633 5629 5625 5620 5615 5610 5605 5599 5593 5587 5581 5574 5566
5640 5642 5649 5652 5653 5655 5656 5656 5657 5657 5658 5658 5658 5657 5656 5655 5654 5653 5652 5651 5649 5648 5646 5644 5642 5640 5638 5635 5632 5629 5625 5621 5617 5613 5608 5603 5598 5592 5586 5579 5573 5565 5558 5550
5634 5639 5642 5643 5644 5645 5646 5648 5648 5649 5649 5649 5649 5648 5648 5647 5646 5644 5643 5642 5640 5639 5637 5635 5632 5630 5627 5625 5621 5617 5614 5610 5605 5601 5596 5590 5585 5578 5572 5564 5557 5549 5541 5533
5625 5629 5632 5634 5635 5636 5638 5639 5640 5640 5641 5641 5640 5640 5639 5638 5637 5636 5634 5633 5631 5629 5627 5625 5622 5619 5617 5613 5610 5606 5602 5598 5593 5588 5583 5577 5571 5564 5557 5549 5541 5532 5524 5515
5617 5621 5623 5625 5626 5628 5629 5630 5631 5632 5632 5632 5632 5631 5630 5629 5628 5627 5625 5623 5621 5619 5617 5614 5611 5609 5606 5602 5599 5595 5590 5586 5581 5576 5570 5564 5557 5549 5541 5533 5523 5515 5506 5497
5610 5613 5614 5617 5618 5619 5620 5622 5623 5623 5623 5623 5623 5622 5621 5620 5619 5617 5616 5614 5611 5609 5606 5604 5601 5598 5595 5591 5587 5583 5578 5573 5568 5562 5556 5549 5542 5535 5526 5517 5507 5497 5487 5477
5601 5603 5605 5607 5609 5611 5612 5613 5614 5615 5615 5614 5614 5613 5612 5611 5610 5608 5606 5604 5601 5599 5596 5593 5590 5587 5583 5579 5575 5571 5566 5560 5554 5548 5541 5534 5526 5518 5511 5502 5491 5480 5470 5458
5592 5594 5596 5599 5601 5602 5603 5604 5605 5606 5606 5605 5605 5604 5603 5601 5600 5598 5596 5594 5591 5588 5586 5582 5579 5576 5572 5568 5563 5558 5552 5547 5540 5534 5527 5519 5510 5502 5493 5484 5475 5464 5453 5441
5584 5586 5588 5590 5592 5593 5594 5595 5596 5597 5597 5596 5596 5595 5593 5592 5590 5588 5586 5583 5581 5578 5575 5571 5568 5564 5560 5555 5550 5545 5539 5533 5526 5519 5511 5503 5494 5485 5475 5465 5455 5445 5435 5424
5575 5577 5579 5581 5583 5584 5585 5586 5587 5587 5587 5587 5586 5585 5584 5582 5580 5578 5576 5573 5570 5567 5564 5560 5556 5552 5548 5543 5537 5532 5525 5519 5511 5504 5496 5487 5477 5468 5458 5447 5436 5426 5415 5405
5566 5568 5570 5572 5574 5575 5576 5577 5578 5578 5578 5577 5576 5575 5574 5572 5570 5568 5565 5562 5559 5556 5552 5548 5544 5540 5535 5529 5524 5518 5512 5505 5497 5488 5479 5470 5461 5450 5440 5429 5418 5407 5396 5386
5557 5559 5561 5563 5564 5566 5567 5568 5568 5568 5568 5567 5566 5565 5563 5562 5560 5557 5554 5551 5548 5544 5540 5536 5532 5527 5522 5516 5510 5504 5497 5490 5481 5473 5463 5454 5443 5433 5422 5410 5399 5389 5379 5369
5548 5550 5552 5553 5555 5556 5557 5558 5558 5558 5558 5557 5556 5555 5553 5551 5549 5546 5543 5540 5536 5533 5528 5524 5519 5514 5508 5502 5496 5489 5482 5474 5465 5456 5447 5437 5426 5415 5404 5393 5382 5372 5362 5353
5540 5541 5543 5544 5546 5547 5548 5548 5548 5548 5548 5547 5546 5544 5542 5540 5538 5535 5532 5528 5524 5520 5516 5511 5506 5500 5494 5488 5481 5474 5466 5457 5449 5439 5430 5419 5408 5397 5387 5376 5366 5356 5346 5337
5531 5533 5534 5535 5536 5537 5538 5538 5538 5538 5537 5536 5535 5533 5531 5529 5526 5523 5520 5516 5512 5508 5503 5498 5492 5486 5480 5473 5466 5458 5450 5441 5432 5422 5412 5401 5391 5381 5370 5360 5351 5341 5332 5323
5522 5524 5525 5526 5527 5528 5528 5528 5528 5527 5527 5525 5524 5522 5520 5518 5515 5512 5508 5504 5500 5495 5489 5484 5478 5472 5465 5458 5450 5442 5433 5424 5414 5404 5394 5384 5374 5364 5355 5345 5336 5327 5318 5310
5513 5514 5516 5517 5518 5518 5518 5518 5518 5517 5516 5515 5513 5511 5509 5506 5503 5500 5496 5491 5486 5481 5476 5470 5464 5457 5450 5442 5434 5425 5416 5407 5397 5387 5378 5368 5358 5348 5339 5330 5322 5313 5306 5298
5504 5505 5507 5507 5508 5508 5508 5508 5507 5506 5505 5504 5502 5500 5497 5494 5491 5487 5483 5478 5473 5468 5462 5455 5449 5441 5434 5426 5418 5409 5400 5390 5381 5371 5362 5352 5343 5334 5325 5317 5309 5301 5294 5286
5495 5496 5497 5498 5498 5498 5498 5497 5496 5495 5494 5492 5490 5488 5485 5482 5478 5474 5470 5465 5459 5453 5447 5440 5433 5426 5418 5410 5401 5392 5383 5374 5365 5355 5346 5338 5329 5321 5312 5304 5297 5289 5282 5276
5485 5486 5487 5488 5488 5488 5487 5486 5486 5484 5483 5481 5478 5476 5473 5469 5465 5461 5456 5451 5445 5439 5432 5425 5418 5410 5402 5394 5385 5376 5367 5358 5349 5340 5332 5324 5316 5307 5300 5292 5285 5278 5272 5265
5476 5477 5477 5477 5477 5477 5476 5476 5474 5473 5471 5469 5466 5463 5460 5456 5452 5447 5442 5436 5430 5424 5417 5410 5403 5395 5387 5378 5369 5360 5351 5343 5335 5327 5318 5310 5303 5295 5288 5281 5274 5268 5261 5255